MSR742 LCLK-HECA

Flight info

Callsign MSR742
Flight time 1h 18m
Altitude 38000
Route EMEDA DCT STEPA/N0456F370 N71 LAKTO N307 MELDO A16 CVO
Aircraft B738/M-SDE2E3FGHIRWXY/LB1

Departure

Time 2026-05-04 19:54
Airport Larnaca International Airport (LCLK)

Arrival

Time 2026-05-04 21:13
Airport Cairo International Airport (HECA)
Time Latitude Longitude Altitude Speed Heading
2026-05-04 19:18 34.86940 33.61165 29 ft 0 kts 255°
2026-05-04 19:41 34.86942 33.61173 28 ft 2 kts 256°
2026-05-04 19:41 34.86946 33.61191 27 ft 2 kts 257°
2026-05-04 19:41 34.86949 33.61209 27 ft 2 kts 258°
2026-05-04 19:41 34.86952 33.61226 26 ft 1 kts 257°
2026-05-04 19:42 34.86954 33.61237 26 ft 2 kts 244°
2026-05-04 19:42 34.86963 33.61251 26 ft 2 kts 211°
2026-05-04 19:42 34.86977 33.61257 26 ft 2 kts 181°
2026-05-04 19:42 34.86992 33.61253 26 ft 2 kts 150°
2026-05-04 19:43 34.86999 33.61248 26 ft 1 kts 133°
2026-05-04 19:43 34.87002 33.61243 26 ft 0 kts 137°
2026-05-04 19:45 34.87002 33.61244 26 ft 0 kts 137°
2026-05-04 19:45 34.86993 33.61254 26 ft 3 kts 137°
2026-05-04 19:45 34.86958 33.61293 24 ft 6 kts 136°
2026-05-04 19:46 34.86938 33.61346 21 ft 7 kts 85°
2026-05-04 19:46 34.86969 33.61401 20 ft 8 kts 45°
2026-05-04 19:46 34.87020 33.61464 18 ft 12 kts 45°
2026-05-04 19:46 34.87087 33.61545 16 ft 13 kts 45°
2026-05-04 19:47 34.87155 33.61628 14 ft 14 kts 45°
2026-05-04 19:47 34.87224 33.61713 12 ft 14 kts 46°
2026-05-04 19:47 34.87294 33.61798 10 ft 14 kts 45°
2026-05-04 19:47 34.87363 33.61882 10 ft 13 kts 45°
2026-05-04 19:48 34.87427 33.61959 10 ft 12 kts 45°
2026-05-04 19:48 34.87484 33.62029 10 ft 11 kts 45°
2026-05-04 19:48 34.87513 33.62111 10 ft 10 kts 103°
2026-05-04 19:48 34.87508 33.62194 9 ft 10 kts 62°
2026-05-04 19:49 34.87564 33.62267 9 ft 13 kts 45°
2026-05-04 19:49 34.87638 33.62358 9 ft 16 kts 45°
2026-05-04 19:49 34.87729 33.62468 9 ft 19 kts 45°
2026-05-04 19:49 34.87823 33.62584 11 ft 17 kts 45°
2026-05-04 19:50 34.87902 33.62680 14 ft 14 kts 46°
2026-05-04 19:50 34.87977 33.62772 15 ft 16 kts 45°
2026-05-04 19:50 34.88059 33.62870 17 ft 16 kts 45°
2026-05-04 19:50 34.88135 33.62964 17 ft 15 kts 45°
2026-05-04 19:51 34.88211 33.63057 15 ft 15 kts 45°
2026-05-04 19:51 34.88295 33.63159 15 ft 18 kts 45°
2026-05-04 19:51 34.88383 33.63266 14 ft 17 kts 45°
2026-05-04 19:51 34.88444 33.63359 13 ft 10 kts 82°
2026-05-04 19:52 34.88414 33.63423 13 ft 7 kts 134°
2026-05-04 19:52 34.88406 33.63432 13 ft 0 kts 134°
2026-05-04 19:52 34.88403 33.63436 13 ft 3 kts 135°
2026-05-04 19:53 34.88366 33.63482 12 ft 8 kts 136°
2026-05-04 19:53 34.88320 33.63518 12 ft 7 kts 166°
2026-05-04 19:53 34.88276 33.63497 12 ft 5 kts 223°
2026-05-04 19:53 34.88234 33.63446 12 ft 23 kts 226°
2026-05-04 19:54 34.87949 33.63097 13 ft 88 kts 225°
2026-05-04 19:54 34.87387 33.62412 10 ft 141 kts 225°
2026-05-04 19:54 34.86594 33.61444 35 ft 176 kts 224°
2026-05-04 19:54 34.85739 33.60413 700 ft 167 kts 226°
2026-05-04 19:55 34.84965 33.59459 1297 ft 157 kts 229°
2026-05-04 19:55 34.84215 33.58511 1411 ft 151 kts 230°
2026-05-04 19:55 34.83468 33.57568 1368 ft 161 kts 229°
2026-05-04 19:55 34.82681 33.56553 1773 ft 166 kts 231°
2026-05-04 19:56 34.81766 33.55638 2032 ft 184 kts 205°
2026-05-04 19:56 34.80430 33.55620 2271 ft 210 kts 161°
2026-05-04 19:56 34.79175 33.56657 2714 ft 219 kts 143°
2026-05-04 19:56 34.78023 33.57857 3091 ft 230 kts 141°
2026-05-04 19:57 34.76788 33.59195 3410 ft 245 kts 140°
2026-05-04 19:57 34.75452 33.60611 3740 ft 261 kts 141°
2026-05-04 19:57 34.74044 33.62063 4104 ft 276 kts 142°
2026-05-04 19:57 34.72569 33.63568 4693 ft 280 kts 142°
2026-05-04 19:58 34.71079 33.65084 5356 ft 281 kts 142°
2026-05-04 19:58 34.69562 33.66629 6000 ft 285 kts 142°
2026-05-04 19:58 34.68053 33.68167 6737 ft 284 kts 142°
2026-05-04 19:58 34.66542 33.69707 7263 ft 292 kts 142°
2026-05-04 19:59 34.64987 33.71290 7955 ft 293 kts 142°
2026-05-04 19:59 34.63399 33.72903 8565 ft 298 kts 144°
2026-05-04 19:59 34.61694 33.74344 9192 ft 299 kts 155°
2026-05-04 19:59 34.59816 33.75358 9872 ft 299 kts 164°
2026-05-04 20:00 34.57829 33.76190 10392 ft 307 kts 166°
2026-05-04 20:00 34.55741 33.77024 10743 ft 323 kts 166°
2026-05-04 20:00 34.52839 33.78229 11219 ft 342 kts 166°
2026-05-04 20:00 34.51307 33.78784 11535 ft 348 kts 171°
2026-05-04 20:01 34.48893 33.79095 12188 ft 344 kts 189°
2026-05-04 20:01 34.46615 33.78494 12880 ft 339 kts 206°
2026-05-04 20:01 34.44538 33.77168 13649 ft 335 kts 216°
2026-05-04 20:01 34.42591 33.75589 14289 ft 340 kts 219°
2026-05-04 20:02 34.40673 33.73941 14988 ft 343 kts 219°
2026-05-04 20:02 34.38717 33.72224 15655 ft 348 kts 220°
2026-05-04 20:02 34.36744 33.70495 16288 ft 353 kts 220°
2026-05-04 20:02 34.34776 33.68784 16969 ft 356 kts 219°
2026-05-04 20:03 34.32738 33.67022 17631 ft 359 kts 219°
2026-05-04 20:03 34.30709 33.65275 18160 ft 366 kts 220°
2026-05-04 20:03 34.28648 33.63502 18873 ft 366 kts 219°
2026-05-04 20:03 34.26538 33.61689 19492 ft 370 kts 219°
2026-05-04 20:04 34.24438 33.59885 20089 ft 373 kts 219°
2026-05-04 20:04 34.22338 33.58083 20733 ft 375 kts 219°
2026-05-04 20:04 34.20195 33.56244 21265 ft 380 kts 219°
2026-05-04 20:04 34.18024 33.54384 21863 ft 382 kts 219°
2026-05-04 20:05 34.15855 33.52525 22403 ft 385 kts 219°
2026-05-04 20:05 34.13696 33.50676 23018 ft 386 kts 219°
2026-05-04 20:05 34.11494 33.48791 23485 ft 391 kts 219°
2026-05-04 20:05 34.09280 33.46897 24017 ft 392 kts 219°
2026-05-04 20:06 34.07052 33.44992 24599 ft 391 kts 219°
2026-05-04 20:06 34.04838 33.43102 25035 ft 394 kts 220°
2026-05-04 20:06 34.02613 33.41204 25567 ft 393 kts 220°
2026-05-04 20:06 34.00367 33.39291 26113 ft 391 kts 220°
2026-05-04 20:07 33.98153 33.37403 26446 ft 395 kts 220°
2026-05-04 20:07 33.95893 33.35478 26996 ft 393 kts 221°
2026-05-04 20:07 33.93673 33.33584 27404 ft 394 kts 221°
2026-05-04 20:07 33.91417 33.31666 27990 ft 390 kts 221°
2026-05-04 20:08 33.89193 33.29775 28296 ft 394 kts 221°
2026-05-04 20:08 33.86948 33.27862 28735 ft 394 kts 221°
2026-05-04 20:08 33.84710 33.25959 29221 ft 393 kts 222°
2026-05-04 20:08 33.82478 33.24062 29513 ft 396 kts 222°
2026-05-04 20:09 33.80247 33.22168 29961 ft 395 kts 222°
2026-05-04 20:09 33.77983 33.20247 30202 ft 399 kts 222°
2026-05-04 20:09 33.75721 33.18330 30587 ft 399 kts 222°
2026-05-04 20:09 33.73439 33.16401 30815 ft 403 kts 222°
2026-05-04 20:10 33.71117 33.14435 31142 ft 403 kts 222°
2026-05-04 20:10 33.68816 33.12488 31462 ft 405 kts 222°
2026-05-04 20:10 33.66550 33.10578 31962 ft 400 kts 222°
2026-05-04 20:10 33.64247 33.08635 32268 ft 401 kts 222°
2026-05-04 20:11 33.61984 33.06727 32711 ft 398 kts 222°
2026-05-04 20:11 33.59708 33.04810 32996 ft 399 kts 222°
2026-05-04 20:11 33.57428 33.02889 33321 ft 399 kts 222°
2026-05-04 20:11 33.55164 33.00982 33636 ft 398 kts 222°
2026-05-04 20:12 33.52917 32.99090 33932 ft 397 kts 222°
2026-05-04 20:12 33.50669 32.97198 34172 ft 397 kts 222°
2026-05-04 20:12 33.47620 32.94631 34388 ft 400 kts 221°
2026-05-04 20:12 33.46121 32.93373 34635 ft 398 kts 222°
2026-05-04 20:13 33.43845 32.91466 34784 ft 400 kts 222°
2026-05-04 20:13 33.41571 32.89558 35032 ft 399 kts 222°
2026-05-04 20:13 33.39295 32.87651 35207 ft 400 kts 222°
2026-05-04 20:13 33.37009 32.85734 35429 ft 398 kts 222°
2026-05-04 20:14 33.34758 32.83852 35604 ft 399 kts 222°
2026-05-04 20:14 33.32477 32.81944 35763 ft 400 kts 222°
2026-05-04 20:14 33.30189 32.80032 36010 ft 400 kts 222°
2026-05-04 20:14 33.27918 32.78135 36201 ft 400 kts 221°
2026-05-04 20:15 33.25642 32.76234 36365 ft 401 kts 222°
2026-05-04 20:15 33.23358 32.74326 36522 ft 402 kts 222°
2026-05-04 20:15 33.21076 32.72421 36727 ft 402 kts 222°
2026-05-04 20:15 33.18765 32.70493 36886 ft 402 kts 222°
2026-05-04 20:16 33.16478 32.68589 37069 ft 402 kts 222°
2026-05-04 20:16 33.14213 32.66705 37232 ft 402 kts 222°
2026-05-04 20:16 33.11917 32.64795 37371 ft 403 kts 222°
2026-05-04 20:16 33.09598 32.62866 37570 ft 401 kts 222°
2026-05-04 20:17 33.07319 32.60974 37752 ft 401 kts 222°
2026-05-04 20:17 33.02737 32.57172 37927 ft 403 kts 222°
2026-05-04 20:18 32.98145 32.53363 38007 ft 403 kts 222°
2026-05-04 20:18 32.93543 32.49556 38010 ft 403 kts 222°
2026-05-04 20:19 32.88973 32.45779 38017 ft 402 kts 222°
2026-05-04 20:19 32.84391 32.41926 38015 ft 401 kts 225°
2026-05-04 20:20 32.80423 32.37402 38022 ft 392 kts 236°
2026-05-04 20:20 32.77187 32.32262 38024 ft 389 kts 240°
2026-05-04 20:21 32.74143 32.26978 38026 ft 388 kts 240°
2026-05-04 20:21 32.69574 32.19060 38032 ft 388 kts 240°
2026-05-04 20:22 32.66512 32.13801 38023 ft 389 kts 240°
2026-05-04 20:22 32.63427 32.08532 38030 ft 389 kts 240°
2026-05-04 20:23 32.60364 32.03305 38032 ft 388 kts 240°
2026-05-04 20:23 32.57289 31.98031 38034 ft 388 kts 240°
2026-05-04 20:24 32.54234 31.92805 38038 ft 387 kts 240°
2026-05-04 20:24 32.51172 31.87568 38043 ft 388 kts 240°
2026-05-04 20:25 32.48111 31.82340 38043 ft 388 kts 240°
2026-05-04 20:25 32.45041 31.77124 38047 ft 387 kts 240°
2026-05-04 20:26 32.41959 31.71889 38045 ft 388 kts 240°
2026-05-04 20:26 32.38879 31.66656 38046 ft 388 kts 240°
2026-05-04 20:27 32.35804 31.61444 38054 ft 389 kts 240°
2026-05-04 20:27 32.32697 31.56189 38052 ft 388 kts 240°
2026-05-04 20:28 32.29603 31.50962 38052 ft 388 kts 240°
2026-05-04 20:28 32.26530 31.45770 38048 ft 389 kts 240°
2026-05-04 20:29 32.23426 31.40543 38051 ft 388 kts 240°
2026-05-04 20:29 32.20326 31.35325 38060 ft 388 kts 240°
2026-05-04 20:30 32.17205 31.30077 38066 ft 389 kts 240°
2026-05-04 20:30 32.14117 31.24892 38063 ft 388 kts 240°
2026-05-04 20:31 32.11028 31.19708 38062 ft 388 kts 240°
2026-05-04 20:31 32.07751 31.14618 38065 ft 392 kts 233°
2026-05-04 20:32 32.03333 31.10718 38073 ft 409 kts 215°
2026-05-04 20:32 31.97876 31.08354 38072 ft 426 kts 201°
2026-05-04 20:33 31.94882 31.07852 38074 ft 439 kts 191°
2026-05-04 20:33 31.91817 31.07874 38079 ft 445 kts 186°
2026-05-04 20:33 31.85621 31.08473 38076 ft 449 kts 183°
2026-05-04 20:34 31.79373 31.09264 38076 ft 450 kts 183°
2026-05-04 20:34 31.73177 31.10017 38076 ft 448 kts 184°
2026-05-04 20:35 31.66956 31.10722 38085 ft 447 kts 184°
2026-05-04 20:35 31.60752 31.11396 38085 ft 448 kts 184°
2026-05-04 20:36 31.54540 31.12062 38088 ft 447 kts 184°
2026-05-04 20:36 31.48343 31.12893 38094 ft 449 kts 181°
2026-05-04 20:37 31.45260 31.13467 37967 ft 445 kts 180°
2026-05-04 20:37 31.42238 31.14072 37313 ft 448 kts 180°
2026-05-04 20:37 31.39141 31.14695 36437 ft 452 kts 179°
2026-05-04 20:37 31.36043 31.15310 35670 ft 454 kts 180°
2026-05-04 20:38 31.32940 31.15919 34939 ft 455 kts 179°
2026-05-04 20:38 31.29837 31.16521 34191 ft 453 kts 180°
2026-05-04 20:38 31.26752 31.17118 33683 ft 442 kts 180°
2026-05-04 20:38 31.23730 31.17702 32780 ft 442 kts 180°
2026-05-04 20:39 31.20716 31.18274 32174 ft 434 kts 180°
2026-05-04 20:39 31.17728 31.18841 31474 ft 429 kts 179°
2026-05-04 20:39 31.14789 31.19392 30744 ft 426 kts 179°
2026-05-04 20:39 31.11881 31.19933 30000 ft 423 kts 179°
2026-05-04 20:40 31.08998 31.20466 29279 ft 419 kts 179°
2026-05-04 20:40 31.06161 31.20996 28653 ft 413 kts 179°
2026-05-04 20:40 31.03339 31.21518 27839 ft 411 kts 179°
2026-05-04 20:40 31.00521 31.22041 27229 ft 405 kts 179°
2026-05-04 20:41 30.97751 31.22559 26446 ft 401 kts 180°
2026-05-04 20:41 30.95042 31.23063 25720 ft 397 kts 179°
2026-05-04 20:41 30.92325 31.23567 24975 ft 393 kts 180°
2026-05-04 20:41 30.89642 31.24064 24287 ft 387 kts 180°
2026-05-04 20:42 30.87003 31.24553 23558 ft 384 kts 180°
2026-05-04 20:42 30.84395 31.25036 22840 ft 382 kts 180°
2026-05-04 20:42 30.81775 31.25519 22102 ft 379 kts 180°
2026-05-04 20:42 30.79183 31.25996 21471 ft 374 kts 180°
2026-05-04 20:43 30.76610 31.26473 20755 ft 373 kts 180°
2026-05-04 20:43 30.74066 31.26940 20218 ft 372 kts 180°
2026-05-04 20:43 30.71511 31.27406 19678 ft 371 kts 180°
2026-05-04 20:43 30.68955 31.27875 19162 ft 370 kts 180°
2026-05-04 20:44 30.66427 31.28339 18646 ft 369 kts 180°
2026-05-04 20:44 30.63918 31.28801 18143 ft 367 kts 179°
2026-05-04 20:44 30.61388 31.29267 17628 ft 366 kts 179°
2026-05-04 20:44 30.58882 31.29729 17129 ft 365 kts 179°
2026-05-04 20:45 30.56378 31.30190 16611 ft 364 kts 179°
2026-05-04 20:45 30.53888 31.30648 16100 ft 362 kts 179°
2026-05-04 20:45 30.51402 31.31104 15573 ft 360 kts 178°
2026-05-04 20:45 30.48910 31.31562 15075 ft 359 kts 178°
2026-05-04 20:46 30.46463 31.32012 14588 ft 356 kts 178°
2026-05-04 20:46 30.44033 31.32464 14355 ft 343 kts 178°
2026-05-04 20:46 30.41714 31.32898 13845 ft 336 kts 178°
2026-05-04 20:46 30.39423 31.33319 13159 ft 336 kts 177°
2026-05-04 20:47 30.37114 31.33738 12569 ft 331 kts 177°
2026-05-04 20:47 30.34864 31.34148 12010 ft 326 kts 177°
2026-05-04 20:47 30.32655 31.34555 11554 ft 319 kts 176°
2026-05-04 20:47 30.30492 31.34956 11111 ft 311 kts 176°
2026-05-04 20:48 30.28351 31.35352 10679 ft 304 kts 176°
2026-05-04 20:48 30.26285 31.35731 10352 ft 299 kts 176°
2026-05-04 20:48 30.24230 31.36103 10246 ft 303 kts 176°
2026-05-04 20:48 30.22133 31.36481 9988 ft 299 kts 176°
2026-05-04 20:49 30.20107 31.36851 9611 ft 293 kts 176°
2026-05-04 20:49 30.18130 31.37261 9237 ft 287 kts 171°
2026-05-04 20:49 30.16294 31.38204 8870 ft 289 kts 144°
2026-05-04 20:49 30.14930 31.39930 8539 ft 295 kts 125°
2026-05-04 20:50 30.13845 31.41968 8151 ft 301 kts 121°
2026-05-04 20:50 30.12794 31.44093 7864 ft 297 kts 120°
2026-05-04 20:50 30.11785 31.46149 7686 ft 294 kts 120°
2026-05-04 20:50 30.10767 31.48220 7559 ft 289 kts 120°
2026-05-04 20:51 30.09789 31.50211 7336 ft 277 kts 120°
2026-05-04 20:51 30.08856 31.52108 7049 ft 270 kts 120°
2026-05-04 20:51 30.07945 31.54002 6752 ft 265 kts 114°
2026-05-04 20:51 30.07523 31.56018 6422 ft 260 kts 85°
2026-05-04 20:52 30.07942 31.58006 5973 ft 253 kts 58°
2026-05-04 20:52 30.08815 31.59703 5640 ft 247 kts 52°
2026-05-04 20:52 30.09765 31.61355 5285 ft 243 kts 51°
2026-05-04 20:52 30.10695 31.62961 4918 ft 240 kts 51°
2026-05-04 20:53 30.11609 31.64553 4593 ft 237 kts 51°
2026-05-04 20:53 30.12513 31.66139 4188 ft 236 kts 52°
2026-05-04 20:53 30.13416 31.67697 3852 ft 231 kts 47°
2026-05-04 20:53 30.14481 31.69058 3489 ft 225 kts 39°
2026-05-04 20:54 30.15608 31.70279 3134 ft 222 kts 38°
2026-05-04 20:54 30.16771 31.71404 2736 ft 217 kts 23°
2026-05-04 20:54 30.18163 31.71786 2542 ft 193 kts 349°
2026-05-04 20:54 30.19346 31.71257 2308 ft 181 kts 319°
2026-05-04 20:55 30.20140 31.70180 2088 ft 172 kts 305°
2026-05-04 20:55 30.20764 31.69043 1968 ft 163 kts 305°
2026-05-04 20:55 30.21368 31.67939 1985 ft 166 kts 305°
2026-05-04 20:55 30.21998 31.66795 1979 ft 170 kts 305°
2026-05-04 20:56 30.22621 31.65618 1966 ft 171 kts 296°
2026-05-04 20:56 30.22787 31.64275 1986 ft 170 kts 271°
2026-05-04 20:56 30.22645 31.62912 1974 ft 169 kts 269°
2026-05-04 20:56 30.22498 31.61570 1977 ft 167 kts 269°
2026-05-04 20:57 30.22359 31.60232 1980 ft 168 kts 269°
2026-05-04 20:57 30.22219 31.58905 1978 ft 167 kts 269°
2026-05-04 20:57 30.22074 31.57573 1991 ft 166 kts 269°
2026-05-04 20:57 30.21799 31.56258 1982 ft 173 kts 249°
2026-05-04 20:58 30.21136 31.55074 1982 ft 176 kts 242°
2026-05-04 20:58 30.20409 31.53927 1983 ft 177 kts 240°
2026-05-04 20:58 30.19649 31.52813 1981 ft 177 kts 239°
2026-05-04 20:58 30.18866 31.51720 1999 ft 177 kts 237°
2026-05-04 20:59 30.18067 31.50624 1978 ft 178 kts 237°
2026-05-04 20:59 30.17260 31.49535 1968 ft 175 kts 237°
2026-05-04 20:59 30.16468 31.48477 1618 ft 171 kts 236°
2026-05-04 20:59 30.15724 31.47487 1389 ft 157 kts 236°
2026-05-04 21:00 30.15020 31.46546 1213 ft 156 kts 236°
2026-05-04 21:00 30.14303 31.45580 993 ft 157 kts 236°
2026-05-04 21:00 30.13589 31.44622 792 ft 156 kts 235°
2026-05-04 21:00 30.12879 31.43681 589 ft 155 kts 234°
2026-05-04 21:01 30.12166 31.42747 406 ft 152 kts 233°
2026-05-04 21:01 30.11467 31.41832 502 ft 158 kts 236°
2026-05-04 21:01 30.10777 31.40864 1092 ft 158 kts 237°
2026-05-04 21:01 30.10052 31.39829 1471 ft 175 kts 245°
2026-05-04 21:02 30.09680 31.38505 2136 ft 169 kts 265°
2026-05-04 21:02 30.09163 31.37209 2427 ft 187 kts 236°
2026-05-04 21:02 30.08217 31.36153 2484 ft 188 kts 228°
2026-05-04 21:02 30.07237 31.35146 2484 ft 183 kts 229°
2026-05-04 21:03 30.06236 31.34222 2492 ft 187 kts 218°
2026-05-04 21:03 30.05089 31.33475 2493 ft 189 kts 213°
2026-05-04 21:03 30.03938 31.32746 2494 ft 188 kts 216°
2026-05-04 21:03 30.02798 31.31973 2499 ft 188 kts 217°
2026-05-04 21:04 30.01662 31.31185 2508 ft 193 kts 217°
2026-05-04 21:04 30.00485 31.30373 2654 ft 200 kts 216°
2026-05-04 21:04 29.99286 31.29550 2822 ft 205 kts 216°
2026-05-04 21:04 29.98041 31.28694 3056 ft 207 kts 216°
2026-05-04 21:05 29.96791 31.27837 3290 ft 207 kts 216°
2026-05-04 21:05 29.95579 31.27004 3229 ft 200 kts 217°
2026-05-04 21:05 29.94614 31.25945 2975 ft 183 kts 246°
2026-05-04 21:05 29.94166 31.24663 2944 ft 166 kts 262°
2026-05-04 21:06 29.93980 31.23340 2958 ft 167 kts 274°
2026-05-04 21:06 29.94142 31.22044 2958 ft 164 kts 294°
2026-05-04 21:06 29.94645 31.20868 2959 ft 161 kts 305°
2026-05-04 21:06 29.95349 31.19899 2961 ft 152 kts 321°
2026-05-04 21:07 29.96217 31.19278 2945 ft 146 kts 334°
2026-05-04 21:07 29.97215 31.18991 2943 ft 153 kts
2026-05-04 21:07 29.98176 31.19579 2946 ft 166 kts 46°
2026-05-04 21:07 29.98653 31.20826 2967 ft 174 kts 67°
2026-05-04 21:08 29.98988 31.22170 2924 ft 175 kts 67°
2026-05-04 21:08 29.99331 31.23519 2890 ft 173 kts 66°
2026-05-04 21:08 29.99675 31.24849 2894 ft 175 kts 66°
2026-05-04 21:08 30.00029 31.26208 2894 ft 175 kts 66°
2026-05-04 21:09 30.00387 31.27555 2856 ft 174 kts 62°
2026-05-04 21:09 30.01083 31.28621 2720 ft 161 kts 31°
2026-05-04 21:09 30.01935 31.29448 2648 ft 157 kts 39°
2026-05-04 21:09 30.02660 31.30344 2537 ft 152 kts 39°
2026-05-04 21:10 30.03382 31.31244 2336 ft 153 kts 40°
2026-05-04 21:10 30.04098 31.32158 2130 ft 153 kts 40°
2026-05-04 21:10 30.04802 31.33072 1924 ft 152 kts 41°
2026-05-04 21:10 30.05508 31.33989 1717 ft 153 kts 41°
2026-05-04 21:11 30.06216 31.34916 1507 ft 153 kts 40°
2026-05-04 21:11 30.06922 31.35844 1292 ft 154 kts 42°
2026-05-04 21:11 30.07617 31.36757 1109 ft 151 kts 42°
2026-05-04 21:11 30.08316 31.37667 903 ft 151 kts 41°
2026-05-04 21:12 30.09036 31.38572 742 ft 151 kts 43°
2026-05-04 21:12 30.09724 31.39482 534 ft 152 kts 43°
2026-05-04 21:12 30.10414 31.40402 395 ft 138 kts 45°
2026-05-04 21:12 30.10925 31.41086 385 ft 68 kts 50°
2026-05-04 21:13 30.11192 31.41446 385 ft 41 kts 46°
2026-05-04 21:13 30.11367 31.41578 385 ft 23 kts 19°
2026-05-04 21:13 30.11495 31.41625 385 ft 14 kts 13°
2026-05-04 21:13 30.11569 31.41601 385 ft 9 kts 300°
2026-05-04 21:14 30.11555 31.41536 385 ft 9 kts 231°
2026-05-04 21:14 30.11505 31.41469 385 ft 12 kts 230°
2026-05-04 21:14 30.11444 31.41387 385 ft 13 kts 228°
2026-05-04 21:14 30.11384 31.41307 385 ft 12 kts 229°
2026-05-04 21:15 30.11331 31.41238 385 ft 10 kts 229°
2026-05-04 21:15 30.11275 31.41163 385 ft 14 kts 229°
2026-05-04 21:15 30.11196 31.41059 385 ft 18 kts 229°
2026-05-04 21:15 30.11114 31.40949 385 ft 17 kts 229°
2026-05-04 21:16 30.11063 31.40860 385 ft 10 kts 263°
2026-05-04 21:16 30.11088 31.40791 385 ft 8 kts 281°
2026-05-04 21:16 30.11058 31.40717 385 ft 13 kts 229°
2026-05-04 21:16 30.10987 31.40623 385 ft 17 kts 229°
2026-05-04 21:17 30.10894 31.40498 385 ft 22 kts 229°
2026-05-04 21:17 30.10788 31.40358 385 ft 22 kts 229°
2026-05-04 21:17 30.10685 31.40222 385 ft 21 kts 229°
2026-05-04 21:17 30.10590 31.40096 385 ft 20 kts 229°
2026-05-04 21:18 30.10502 31.39978 385 ft 16 kts 237°
2026-05-04 21:18 30.10511 31.39874 385 ft 12 kts 316°
2026-05-04 21:18 30.10585 31.39841 385 ft 10 kts 345°
2026-05-04 21:18 30.10658 31.39785 385 ft 9 kts 278°
2026-05-04 21:19 30.10652 31.39737 385 ft 8 kts 255°
2026-05-04 21:19 30.10632 31.39652 385 ft 13 kts 255°
2026-05-04 21:19 30.10607 31.39523 385 ft 10 kts 274°
2026-05-04 21:19 30.10630 31.39484 385 ft 8 kts 330°
2026-05-04 21:20 30.10686 31.39462 385 ft 7 kts 345°
2026-05-04 21:20 30.10734 31.39447 385 ft 5 kts 341°
2026-05-04 21:20 30.10749 31.39422 385 ft 2 kts 271°
2026-05-04 21:20 30.10744 31.39393 385 ft 5 kts 255°
2026-05-04 21:21 30.10735 31.39352 385 ft 0 kts 255°
2026-05-04 21:21 30.10734 31.39352 385 ft 0 kts 255°